BEZ313 TIST-TBPB

Flight info

Callsign BEZ313
Flight time 2h 38m
Altitude 11000
Route COY A555 ILURI A555 BGI
Aircraft C208/L-VGD/C

Departure

Time 2026-04-20 22:38
Airport Cyril E. King Airport (TIST)

Arrival

Time 2026-04-21 01:17
Airport Grantley Adams International Airport (TBPB)
Time Latitude Longitude Altitude Speed Heading
2026-04-20 22:30 18.33179 -64.97163 25 ft 0 kts 350°
2026-04-20 22:32 18.33180 -64.97163 25 ft 1 kts 350°
2026-04-20 22:33 18.33226 -64.97173 25 ft 9 kts 351°
2026-04-20 22:33 18.33287 -64.97179 26 ft 7 kts 346°
2026-04-20 22:33 18.33342 -64.97234 25 ft 16 kts 313°
2026-04-20 22:33 18.33423 -64.97325 23 ft 16 kts 309°
2026-04-20 22:34 18.33504 -64.97391 23 ft 13 kts 349°
2026-04-20 22:34 18.33588 -64.97401 23 ft 10 kts 329°
2026-04-20 22:34 18.33609 -64.97485 22 ft 16 kts 262°
2026-04-20 22:34 18.33603 -64.97633 20 ft 21 kts 269°
2026-04-20 22:35 18.33598 -64.97776 19 ft 18 kts 268°
2026-04-20 22:35 18.33594 -64.97900 18 ft 15 kts 266°
2026-04-20 22:35 18.33589 -64.98025 18 ft 17 kts 280°
2026-04-20 22:35 18.33586 -64.98143 18 ft 14 kts 265°
2026-04-20 22:36 18.33581 -64.98243 18 ft 12 kts 268°
2026-04-20 22:36 18.33602 -64.98318 18 ft 9 kts 325°
2026-04-20 22:36 18.33610 -64.98322 18 ft 0 kts 328°
2026-04-20 22:37 18.33625 -64.98329 18 ft 6 kts 346°
2026-04-20 22:37 18.33679 -64.98306 18 ft 12 kts 60°
2026-04-20 22:37 18.33701 -64.98131 18 ft 46 kts 87°
2026-04-20 22:37 18.33725 -64.97626 48 ft 83 kts 84°
2026-04-20 22:38 18.33765 -64.97008 268 ft 84 kts 84°
2026-04-20 22:38 18.33634 -64.96412 448 ft 88 kts 116°
2026-04-20 22:38 18.33191 -64.95911 551 ft 103 kts 137°
2026-04-20 22:38 18.32543 -64.95515 703 ft 111 kts 149°
2026-04-20 22:39 18.31790 -64.95225 859 ft 117 kts 154°
2026-04-20 22:39 18.31048 -64.94938 1129 ft 111 kts 150°
2026-04-20 22:39 18.30347 -64.94640 1365 ft 107 kts 149°
2026-04-20 22:39 18.29666 -64.94350 1586 ft 104 kts 148°
2026-04-20 22:40 18.28984 -64.94055 1783 ft 105 kts 148°
2026-04-20 22:40 18.28313 -64.93761 1968 ft 105 kts 148°
2026-04-20 22:40 18.27626 -64.93458 2117 ft 110 kts 148°
2026-04-20 22:40 18.26904 -64.93144 2271 ft 114 kts 148°
2026-04-20 22:41 18.26146 -64.92815 2417 ft 118 kts 148°
2026-04-20 22:41 18.25380 -64.92482 2560 ft 122 kts 149°
2026-04-20 22:41 18.24583 -64.92139 2707 ft 125 kts 149°
2026-04-20 22:41 18.23766 -64.91785 2852 ft 127 kts 149°
2026-04-20 22:42 18.22943 -64.91431 3003 ft 129 kts 149°
2026-04-20 22:42 18.22100 -64.91068 3160 ft 130 kts 149°
2026-04-20 22:42 18.21264 -64.90709 3304 ft 131 kts 150°
2026-04-20 22:42 18.20414 -64.90340 3448 ft 131 kts 150°
2026-04-20 22:43 18.19564 -64.89970 3590 ft 132 kts 150°
2026-04-20 22:43 18.18709 -64.89601 3733 ft 132 kts 150°
2026-04-20 22:43 18.17858 -64.89235 3877 ft 132 kts 150°
2026-04-20 22:43 18.17002 -64.88863 4029 ft 132 kts 150°
2026-04-20 22:44 18.16148 -64.88496 4171 ft 133 kts 150°
2026-04-20 22:44 18.15292 -64.88123 4315 ft 133 kts 151°
2026-04-20 22:44 18.14426 -64.87749 4462 ft 134 kts 151°
2026-04-20 22:44 18.13554 -64.87374 4608 ft 135 kts 150°
2026-04-20 22:45 18.12694 -64.87000 4752 ft 135 kts 150°
2026-04-20 22:45 18.11819 -64.86623 4894 ft 135 kts 150°
2026-04-20 22:45 18.10944 -64.86246 5036 ft 135 kts 151°
2026-04-20 22:45 18.10070 -64.85866 5188 ft 136 kts 150°
2026-04-20 22:46 18.09194 -64.85487 5336 ft 136 kts 151°
2026-04-20 22:46 18.08314 -64.85107 5483 ft 136 kts 151°
2026-04-20 22:46 18.07427 -64.84724 5628 ft 137 kts 151°
2026-04-20 22:46 18.06541 -64.84343 5773 ft 137 kts 152°
2026-04-20 22:47 18.05662 -64.83961 5916 ft 137 kts 151°
2026-04-20 22:47 18.04773 -64.83579 6065 ft 137 kts 151°
2026-04-20 22:47 18.03890 -64.83199 6232 ft 136 kts 151°
2026-04-20 22:47 18.03014 -64.82820 6399 ft 135 kts 151°
2026-04-20 22:48 18.02136 -64.82441 6564 ft 135 kts 151°
2026-04-20 22:48 18.01275 -64.82068 6730 ft 134 kts 152°
2026-04-20 22:48 18.00408 -64.81695 6899 ft 133 kts 152°
2026-04-20 22:48 17.99548 -64.81323 7065 ft 132 kts 152°
2026-04-20 22:49 17.98705 -64.80961 7229 ft 131 kts 151°
2026-04-20 22:49 17.97860 -64.80595 7397 ft 130 kts 151°
2026-04-20 22:49 17.97022 -64.80235 7563 ft 129 kts 151°
2026-04-20 22:49 17.96185 -64.79871 7731 ft 129 kts 152°
2026-04-20 22:50 17.95343 -64.79506 7901 ft 130 kts 151°
2026-04-20 22:50 17.94500 -64.79143 8071 ft 131 kts 152°
2026-04-20 22:50 17.93650 -64.78776 8242 ft 132 kts 152°
2026-04-20 22:50 17.92799 -64.78409 8410 ft 133 kts 152°
2026-04-20 22:51 17.91944 -64.78041 8579 ft 133 kts 153°
2026-04-20 22:51 17.91083 -64.77670 8746 ft 134 kts 153°
2026-04-20 22:51 17.90210 -64.77293 8914 ft 134 kts 153°
2026-04-20 22:51 17.89348 -64.76922 9078 ft 134 kts 153°
2026-04-20 22:52 17.88490 -64.76554 9239 ft 134 kts 153°
2026-04-20 22:52 17.87612 -64.76176 9406 ft 135 kts 153°
2026-04-20 22:52 17.86750 -64.75804 9569 ft 136 kts 153°
2026-04-20 22:52 17.85868 -64.75425 9735 ft 136 kts 153°
2026-04-20 22:53 17.84983 -64.75043 9902 ft 137 kts 153°
2026-04-20 22:53 17.84101 -64.74663 10063 ft 137 kts 153°
2026-04-20 22:53 17.83208 -64.74278 10230 ft 137 kts 154°
2026-04-20 22:53 17.82331 -64.73900 10392 ft 137 kts 154°
2026-04-20 22:54 17.81439 -64.73516 10547 ft 138 kts 154°
2026-04-20 22:54 17.80530 -64.73122 10669 ft 141 kts 154°
2026-04-20 22:54 17.79612 -64.72729 10790 ft 144 kts 154°
2026-04-20 22:54 17.78667 -64.72322 10912 ft 147 kts 154°
2026-04-20 22:55 17.77711 -64.71910 10994 ft 152 kts 154°
2026-04-20 22:55 17.76690 -64.71471 10999 ft 162 kts 154°
2026-04-20 22:55 17.75618 -64.71009 11003 ft 169 kts 154°
2026-04-20 22:55 17.74575 -64.70433 11017 ft 171 kts 133°
2026-04-20 22:56 17.74139 -64.69301 10691 ft 183 kts 79°
2026-04-20 22:56 17.73751 -64.68037 10554 ft 193 kts 133°
2026-04-20 22:56 17.72771 -64.67273 10706 ft 181 kts 136°
2026-04-20 22:56 17.72635 -64.67149 10721 ft 180 kts 133°
2026-04-20 22:57 17.71753 -64.66241 10726 ft 179 kts 131°
2026-04-20 22:57 17.70850 -64.65347 10782 ft 178 kts 134°
2026-04-20 22:57 17.69822 -64.64591 10820 ft 177 kts 142°
2026-04-20 22:57 17.68863 -64.63832 10932 ft 172 kts 138°
2026-04-20 22:58 17.67948 -64.63017 10990 ft 172 kts 134°
2026-04-20 22:58 17.67081 -64.62151 10993 ft 174 kts 131°
2026-04-20 22:58 17.66217 -64.61224 10992 ft 177 kts 130°
2026-04-20 22:58 17.65376 -64.60287 10991 ft 179 kts 129°
2026-04-20 22:59 17.64535 -64.59319 10989 ft 178 kts 128°
2026-04-20 22:59 17.63707 -64.58356 10986 ft 177 kts 128°
2026-04-20 22:59 17.62891 -64.57391 10984 ft 176 kts 128°
2026-04-20 22:59 17.62082 -64.56432 10984 ft 175 kts 128°
2026-04-20 23:00 17.61275 -64.55467 10982 ft 175 kts 128°
2026-04-20 23:00 17.60473 -64.54510 10982 ft 174 kts 128°
2026-04-20 23:00 17.59681 -64.53562 10982 ft 174 kts 128°
2026-04-20 23:00 17.58881 -64.52604 10981 ft 174 kts 127°
2026-04-20 23:01 17.58080 -64.51646 10980 ft 174 kts 128°
2026-04-20 23:01 17.57282 -64.50688 10981 ft 174 kts 127°
2026-04-20 23:01 17.56483 -64.49733 10983 ft 174 kts 127°
2026-04-20 23:01 17.55683 -64.48773 10984 ft 174 kts 127°
2026-04-20 23:02 17.54884 -64.47817 10986 ft 174 kts 127°
2026-04-20 23:02 17.54085 -64.46859 10985 ft 174 kts 127°
2026-04-20 23:02 17.53284 -64.45902 10985 ft 174 kts 127°
2026-04-20 23:02 17.52475 -64.44931 10985 ft 174 kts 127°
2026-04-20 23:03 17.51673 -64.43972 10984 ft 174 kts 128°
2026-04-20 23:03 17.50875 -64.43014 10984 ft 174 kts 127°
2026-04-20 23:03 17.50072 -64.42056 10984 ft 175 kts 127°
2026-04-20 23:03 17.49273 -64.41097 10985 ft 174 kts 128°
2026-04-20 23:04 17.48473 -64.40141 10984 ft 174 kts 128°
2026-04-20 23:04 17.47672 -64.39184 10985 ft 174 kts 127°
2026-04-20 23:04 17.46872 -64.38226 10983 ft 174 kts 127°
2026-04-20 23:04 17.46073 -64.37272 10983 ft 174 kts 127°
2026-04-20 23:05 17.45271 -64.36314 10984 ft 175 kts 127°
2026-04-20 23:05 17.44472 -64.35355 10984 ft 175 kts 127°
2026-04-20 23:05 17.43665 -64.34393 10985 ft 175 kts 128°
2026-04-20 23:05 17.42865 -64.33435 10986 ft 175 kts 127°
2026-04-20 23:06 17.42062 -64.32476 10988 ft 175 kts 128°
2026-04-20 23:06 17.41255 -64.31512 10988 ft 175 kts 128°
2026-04-20 23:06 17.40459 -64.30558 10987 ft 175 kts 128°
2026-04-20 23:06 17.39654 -64.29597 10986 ft 175 kts 128°
2026-04-20 23:07 17.38847 -64.28635 10986 ft 175 kts 128°
2026-04-20 23:07 17.38050 -64.27685 10984 ft 175 kts 128°
2026-04-20 23:07 17.37244 -64.26722 10984 ft 175 kts 128°
2026-04-20 23:07 17.36445 -64.25768 10985 ft 175 kts 128°
2026-04-20 23:08 17.35641 -64.24809 10987 ft 175 kts 128°
2026-04-20 23:08 17.34832 -64.23845 10987 ft 175 kts 128°
2026-04-20 23:08 17.34036 -64.22893 10988 ft 175 kts 128°
2026-04-20 23:08 17.33230 -64.21931 10988 ft 175 kts 127°
2026-04-20 23:09 17.32420 -64.20966 10987 ft 175 kts 128°
2026-04-20 23:09 17.31624 -64.20015 10984 ft 175 kts 128°
2026-04-20 23:09 17.30816 -64.19048 10980 ft 175 kts 128°
2026-04-20 23:09 17.30005 -64.18081 10977 ft 176 kts 129°
2026-04-20 23:10 17.29204 -64.17128 10974 ft 176 kts 128°
2026-04-20 23:10 17.28394 -64.16163 10974 ft 176 kts 128°
2026-04-20 23:10 17.27583 -64.15199 10974 ft 176 kts 128°
2026-04-20 23:10 17.26775 -64.14237 10975 ft 175 kts 128°
2026-04-20 23:11 17.25969 -64.13275 10975 ft 175 kts 127°
2026-04-20 23:11 17.25163 -64.12315 10975 ft 175 kts 128°
2026-04-20 23:11 17.24358 -64.11355 10975 ft 175 kts 128°
2026-04-20 23:11 17.23564 -64.10409 10976 ft 175 kts 128°
2026-04-20 23:12 17.22760 -64.09451 10976 ft 175 kts 128°
2026-04-20 23:12 17.21953 -64.08493 10974 ft 175 kts 128°
2026-04-20 23:12 17.21151 -64.07536 10974 ft 175 kts 128°
2026-04-20 23:12 17.20345 -64.06578 10973 ft 175 kts 128°
2026-04-20 23:13 17.19539 -64.05617 10972 ft 175 kts 128°
2026-04-20 23:13 17.18734 -64.04658 10971 ft 175 kts 128°
2026-04-20 23:13 17.17928 -64.03699 10970 ft 175 kts 128°
2026-04-20 23:13 17.17121 -64.02741 10971 ft 175 kts 128°
2026-04-20 23:14 17.16315 -64.01782 10971 ft 175 kts 128°
2026-04-20 23:14 17.15508 -64.00822 10971 ft 175 kts 128°
2026-04-20 23:14 17.14703 -63.99865 10972 ft 175 kts 128°
2026-04-20 23:14 17.13896 -63.98906 10973 ft 175 kts 128°
2026-04-20 23:15 17.13087 -63.97943 10971 ft 175 kts 128°
2026-04-20 23:15 17.12286 -63.96990 10971 ft 175 kts 128°
2026-04-20 23:15 17.11476 -63.96028 10970 ft 175 kts 128°
2026-04-20 23:15 17.10678 -63.95083 10970 ft 175 kts 128°
2026-04-20 23:16 17.09865 -63.94114 10970 ft 175 kts 128°
2026-04-20 23:16 17.09070 -63.93169 10971 ft 175 kts 128°
2026-04-20 23:16 17.08260 -63.92207 10971 ft 175 kts 128°
2026-04-20 23:16 17.07448 -63.91242 10971 ft 176 kts 128°
2026-04-20 23:17 17.06636 -63.90279 10971 ft 176 kts 128°
2026-04-20 23:17 17.05834 -63.89327 10970 ft 176 kts 128°
2026-04-20 23:17 17.05020 -63.88363 10970 ft 176 kts 128°
2026-04-20 23:17 17.04209 -63.87398 10971 ft 175 kts 128°
2026-04-20 23:18 17.03397 -63.86435 10970 ft 175 kts 128°
2026-04-20 23:18 17.02597 -63.85486 10970 ft 175 kts 128°
2026-04-20 23:18 17.01786 -63.84524 10970 ft 175 kts 128°
2026-04-20 23:18 17.00987 -63.83575 10970 ft 175 kts 128°
2026-04-20 23:19 17.00177 -63.82616 10970 ft 175 kts 128°
2026-04-20 23:19 16.99368 -63.81655 10971 ft 175 kts 128°
2026-04-20 23:19 16.98557 -63.80692 10970 ft 176 kts 128°
2026-04-20 23:19 16.97745 -63.79728 10971 ft 176 kts 128°
2026-04-20 23:20 16.96944 -63.78779 10972 ft 176 kts 129°
2026-04-20 23:20 16.96129 -63.77815 10971 ft 176 kts 129°
2026-04-20 23:20 16.95320 -63.76857 10970 ft 176 kts 128°
2026-04-20 23:20 16.94501 -63.75885 10970 ft 176 kts 128°
2026-04-20 23:21 16.93694 -63.74929 10970 ft 176 kts 128°
2026-04-20 23:21 16.92882 -63.73969 10971 ft 176 kts 128°
2026-04-20 23:21 16.92070 -63.73006 10970 ft 176 kts 128°
2026-04-20 23:21 16.91260 -63.72047 10969 ft 175 kts 128°
2026-04-20 23:22 16.90452 -63.71093 10970 ft 175 kts 128°
2026-04-20 23:22 16.89646 -63.70138 10969 ft 175 kts 128°
2026-04-20 23:22 16.88833 -63.69174 10968 ft 175 kts 128°
2026-04-20 23:22 16.88031 -63.68223 10968 ft 175 kts 128°
2026-04-20 23:23 16.87226 -63.67271 10968 ft 175 kts 128°
2026-04-20 23:23 16.86417 -63.66313 10969 ft 175 kts 128°
2026-04-20 23:23 16.85607 -63.65355 10969 ft 176 kts 128°
2026-04-20 23:23 16.84801 -63.64399 10968 ft 176 kts 128°
2026-04-20 23:24 16.83979 -63.63430 10967 ft 176 kts 128°
2026-04-20 23:24 16.83172 -63.62474 10969 ft 175 kts 128°
2026-04-20 23:24 16.82360 -63.61515 10969 ft 175 kts 128°
2026-04-20 23:24 16.81559 -63.60570 10969 ft 175 kts 128°
2026-04-20 23:25 16.80746 -63.59608 10969 ft 175 kts 128°
2026-04-20 23:25 16.79934 -63.58649 10972 ft 175 kts 128°
2026-04-20 23:25 16.79131 -63.57700 10972 ft 175 kts 128°
2026-04-20 23:25 16.78319 -63.56739 10974 ft 175 kts 128°
2026-04-20 23:26 16.77513 -63.55786 10976 ft 175 kts 128°
2026-04-20 23:26 16.76701 -63.54828 10977 ft 175 kts 128°
2026-04-20 23:26 16.75898 -63.53878 10977 ft 176 kts 129°
2026-04-20 23:26 16.75087 -63.52919 10976 ft 176 kts 128°
2026-04-20 23:27 16.74272 -63.51958 10979 ft 176 kts 128°
2026-04-20 23:27 16.73464 -63.51005 10978 ft 176 kts 128°
2026-04-20 23:27 16.72655 -63.50050 10982 ft 176 kts 129°
2026-04-20 23:27 16.71843 -63.49092 10982 ft 176 kts 129°
2026-04-20 23:28 16.71027 -63.48132 10983 ft 176 kts 128°
2026-04-20 23:28 16.70217 -63.47175 10983 ft 176 kts 128°
2026-04-20 23:28 16.69402 -63.46213 10983 ft 176 kts 128°
2026-04-20 23:28 16.68587 -63.45253 10980 ft 176 kts 128°
2026-04-20 23:29 16.67785 -63.44302 10980 ft 176 kts 128°
2026-04-20 23:29 16.66971 -63.43345 10983 ft 176 kts 128°
2026-04-20 23:29 16.66158 -63.42386 10983 ft 176 kts 128°
2026-04-20 23:29 16.65345 -63.41427 10984 ft 176 kts 129°
2026-04-20 23:30 16.64529 -63.40463 10984 ft 176 kts 128°
2026-04-20 23:30 16.63726 -63.39517 10984 ft 176 kts 128°
2026-04-20 23:30 16.62908 -63.38556 10984 ft 176 kts 129°
2026-04-20 23:30 16.62092 -63.37592 10982 ft 176 kts 128°
2026-04-20 23:31 16.61284 -63.36639 10983 ft 176 kts 129°
2026-04-20 23:31 16.60463 -63.35672 10981 ft 176 kts 129°
2026-04-20 23:31 16.59656 -63.34723 10981 ft 176 kts 129°
2026-04-20 23:31 16.58845 -63.33768 10981 ft 176 kts 129°
2026-04-20 23:32 16.58027 -63.32805 10981 ft 176 kts 128°
2026-04-20 23:32 16.57207 -63.31840 10981 ft 176 kts 129°
2026-04-20 23:32 16.56401 -63.30890 10979 ft 176 kts 129°
2026-04-20 23:32 16.55584 -63.29928 10980 ft 176 kts 129°
2026-04-20 23:33 16.54775 -63.28976 10982 ft 176 kts 128°
2026-04-20 23:33 16.53953 -63.28007 10983 ft 176 kts 129°
2026-04-20 23:33 16.53141 -63.27053 10981 ft 176 kts 129°
2026-04-20 23:33 16.52328 -63.26096 10980 ft 176 kts 129°
2026-04-20 23:34 16.51513 -63.25137 10979 ft 176 kts 129°
2026-04-20 23:34 16.50693 -63.24176 10978 ft 176 kts 129°
2026-04-20 23:34 16.49878 -63.23215 10979 ft 176 kts 129°
2026-04-20 23:34 16.49064 -63.22258 10978 ft 176 kts 129°
2026-04-20 23:35 16.48255 -63.21308 10978 ft 177 kts 129°
2026-04-20 23:35 16.46614 -63.19379 10980 ft 177 kts 129°
2026-04-20 23:35 16.45792 -63.18412 10978 ft 177 kts 129°
2026-04-20 23:36 16.44977 -63.17456 10979 ft 177 kts 129°
2026-04-20 23:36 16.44157 -63.16492 10977 ft 177 kts 129°
2026-04-20 23:36 16.43341 -63.15535 10977 ft 177 kts 129°
2026-04-20 23:36 16.42526 -63.14574 10979 ft 177 kts 129°
2026-04-20 23:37 16.41712 -63.13618 10979 ft 177 kts 129°
2026-04-20 23:37 16.40892 -63.12656 10979 ft 176 kts 129°
2026-04-20 23:37 16.40079 -63.11702 10978 ft 176 kts 129°
2026-04-20 23:37 16.39261 -63.10743 10978 ft 177 kts 129°
2026-04-20 23:38 16.38439 -63.09778 10975 ft 177 kts 129°
2026-04-20 23:38 16.37621 -63.08819 10975 ft 177 kts 129°
2026-04-20 23:38 16.36809 -63.07866 10976 ft 177 kts 129°
2026-04-20 23:38 16.35986 -63.06902 10977 ft 177 kts 129°
2026-04-20 23:39 16.35164 -63.05937 10978 ft 177 kts 129°
2026-04-20 23:39 16.34353 -63.04985 10979 ft 177 kts 129°
2026-04-20 23:39 16.33530 -63.04018 10976 ft 177 kts 129°
2026-04-20 23:39 16.32708 -63.03055 10976 ft 177 kts 129°
2026-04-20 23:40 16.31899 -63.02106 10975 ft 177 kts 129°
2026-04-20 23:40 16.31075 -63.01140 10975 ft 176 kts 129°
2026-04-20 23:40 16.30268 -63.00193 10975 ft 176 kts 128°
2026-04-20 23:40 16.29687 -62.99088 10980 ft 174 kts 117°
2026-04-20 23:41 16.28855 -62.98150 10981 ft 176 kts 133°
2026-04-20 23:41 16.27988 -62.97261 10976 ft 177 kts 133°
2026-04-20 23:41 16.27116 -62.96342 10977 ft 177 kts 131°
2026-04-20 23:41 16.26270 -62.95413 10976 ft 177 kts 130°
2026-04-20 23:42 16.25427 -62.94466 10976 ft 178 kts 130°
2026-04-20 23:42 16.24589 -62.93507 10975 ft 178 kts 129°
2026-04-20 23:42 16.23754 -62.92544 10975 ft 178 kts 129°
2026-04-20 23:42 16.22934 -62.91591 10975 ft 178 kts 129°
2026-04-20 23:43 16.22104 -62.90628 10974 ft 177 kts 129°
2026-04-20 23:43 16.21288 -62.89676 10974 ft 177 kts 129°
2026-04-20 23:43 16.20465 -62.88714 10973 ft 177 kts 129°
2026-04-20 23:43 16.19642 -62.87752 10974 ft 177 kts 129°
2026-04-20 23:44 16.18820 -62.86792 10975 ft 176 kts 129°
2026-04-20 23:44 16.18000 -62.85834 10975 ft 176 kts 129°
2026-04-20 23:44 16.17189 -62.84885 10974 ft 177 kts 129°
2026-04-20 23:44 16.16369 -62.83925 10971 ft 177 kts 129°
2026-04-20 23:45 16.15548 -62.82966 10971 ft 177 kts 129°
2026-04-20 23:45 16.14725 -62.82004 10971 ft 177 kts 129°
2026-04-20 23:45 16.13911 -62.81054 10970 ft 177 kts 129°
2026-04-20 23:45 16.13088 -62.80091 10972 ft 177 kts 129°
2026-04-20 23:46 16.12267 -62.79133 10973 ft 177 kts 129°
2026-04-20 23:46 16.11440 -62.78166 10973 ft 178 kts 129°
2026-04-20 23:46 16.10627 -62.77215 10974 ft 177 kts 130°
2026-04-20 23:46 16.09804 -62.76253 10973 ft 177 kts 130°
2026-04-20 23:47 16.08980 -62.75291 10972 ft 177 kts 130°
2026-04-20 23:47 16.08163 -62.74337 10971 ft 177 kts 130°
2026-04-20 23:47 16.07338 -62.73375 10972 ft 176 kts 130°
2026-04-20 23:47 16.06531 -62.72433 10971 ft 177 kts 129°
2026-04-20 23:48 16.05711 -62.71476 10971 ft 177 kts 129°
2026-04-20 23:48 16.04887 -62.70514 10971 ft 177 kts 130°
2026-04-20 23:48 16.04065 -62.69556 10971 ft 177 kts 129°
2026-04-20 23:48 16.03239 -62.68592 10970 ft 178 kts 129°
2026-04-20 23:49 16.02415 -62.67630 10970 ft 178 kts 130°
2026-04-20 23:49 16.01589 -62.66665 10970 ft 178 kts 130°
2026-04-20 23:49 16.00773 -62.65713 10970 ft 178 kts 130°
2026-04-20 23:49 15.99946 -62.64749 10969 ft 177 kts 130°
2026-04-20 23:50 15.99120 -62.63786 10969 ft 177 kts 130°
2026-04-20 23:50 15.98306 -62.62838 10967 ft 177 kts 130°
2026-04-20 23:50 15.97483 -62.61880 10969 ft 177 kts 129°
2026-04-20 23:50 15.96657 -62.60918 10969 ft 177 kts 129°
2026-04-20 23:51 15.95846 -62.59972 10971 ft 177 kts 129°
2026-04-20 23:51 15.95021 -62.59010 10970 ft 177 kts 129°
2026-04-20 23:51 15.94196 -62.58051 10971 ft 177 kts 129°
2026-04-20 23:51 15.93383 -62.57103 10971 ft 177 kts 129°
2026-04-20 23:52 15.92556 -62.56140 10970 ft 177 kts 129°
2026-04-20 23:52 15.91734 -62.55181 10969 ft 177 kts 129°
2026-04-20 23:52 15.90911 -62.54222 10969 ft 177 kts 130°
2026-04-20 23:52 15.90089 -62.53264 10967 ft 177 kts 130°
2026-04-20 23:53 15.89266 -62.52305 10966 ft 177 kts 130°
2026-04-20 23:53 15.88453 -62.51360 10967 ft 176 kts 130°
2026-04-20 23:53 15.87632 -62.50407 10967 ft 176 kts 129°
2026-04-20 23:53 15.86813 -62.49453 10967 ft 176 kts 129°
2026-04-20 23:54 15.85997 -62.48505 10969 ft 176 kts 129°
2026-04-20 23:54 15.85180 -62.47553 10967 ft 176 kts 129°
2026-04-20 23:54 15.84364 -62.46604 10968 ft 176 kts 129°
2026-04-20 23:54 15.83536 -62.45644 10967 ft 176 kts 129°
2026-04-20 23:55 15.82724 -62.44698 10966 ft 176 kts 129°
2026-04-20 23:55 15.81902 -62.43739 10965 ft 176 kts 130°
2026-04-20 23:55 15.81088 -62.42792 10966 ft 176 kts 129°
2026-04-20 23:55 15.80272 -62.41844 10966 ft 177 kts 130°
2026-04-20 23:56 15.79446 -62.40884 10967 ft 177 kts 130°
2026-04-20 23:56 15.78625 -62.39930 10965 ft 177 kts 130°
2026-04-20 23:56 15.77809 -62.38983 10966 ft 177 kts 130°
2026-04-20 23:56 15.76981 -62.38021 10964 ft 177 kts 130°
2026-04-20 23:57 15.76165 -62.37074 10966 ft 177 kts 129°
2026-04-20 23:57 15.75342 -62.36119 10966 ft 177 kts 130°
2026-04-20 23:57 15.74513 -62.35156 10966 ft 177 kts 130°
2026-04-20 23:57 15.73696 -62.34207 10968 ft 177 kts 130°
2026-04-20 23:58 15.72880 -62.33260 10971 ft 177 kts 130°
2026-04-20 23:58 15.72055 -62.32300 10974 ft 176 kts 130°
2026-04-20 23:58 15.71233 -62.31347 10977 ft 176 kts 130°
2026-04-20 23:58 15.70420 -62.30405 10980 ft 176 kts 130°
2026-04-20 23:59 15.69601 -62.29453 10982 ft 176 kts 130°
2026-04-20 23:59 15.68774 -62.28493 10982 ft 177 kts 130°
2026-04-20 23:59 15.67952 -62.27538 10981 ft 177 kts 130°
2026-04-20 23:59 15.67132 -62.26586 10982 ft 177 kts 130°
2026-04-21 00:00 15.66310 -62.25634 10982 ft 177 kts 130°
2026-04-21 00:00 15.65490 -62.24685 10982 ft 177 kts 130°
2026-04-21 00:00 15.64670 -62.23734 10984 ft 177 kts 130°
2026-04-21 00:00 15.63845 -62.22777 10982 ft 177 kts 130°
2026-04-21 00:01 15.63016 -62.21818 10983 ft 177 kts 130°
2026-04-21 00:01 15.62197 -62.20869 10983 ft 177 kts 130°
2026-04-21 00:01 15.61379 -62.19920 10984 ft 177 kts 130°
2026-04-21 00:01 15.60560 -62.18971 10983 ft 177 kts 130°
2026-04-21 00:02 15.59741 -62.18021 10982 ft 177 kts 130°
2026-04-21 00:02 15.58909 -62.17056 10980 ft 177 kts 130°
2026-04-21 00:02 15.58088 -62.16104 10979 ft 177 kts 130°
2026-04-21 00:02 15.57273 -62.15159 10981 ft 177 kts 130°
2026-04-21 00:03 15.56444 -62.14200 10981 ft 177 kts 130°
2026-04-21 00:03 15.55616 -62.13241 10983 ft 177 kts 130°
2026-04-21 00:03 15.54799 -62.12295 10982 ft 177 kts 130°
2026-04-21 00:03 15.53973 -62.11340 10984 ft 177 kts 130°
2026-04-21 00:04 15.53149 -62.10387 10984 ft 177 kts 130°
2026-04-21 00:04 15.52334 -62.09444 10983 ft 177 kts 130°
2026-04-21 00:04 15.51506 -62.08486 10980 ft 177 kts 130°
2026-04-21 00:04 15.50691 -62.07542 10981 ft 177 kts 130°
2026-04-21 00:05 15.49861 -62.06584 10984 ft 177 kts 130°
2026-04-21 00:05 15.49036 -62.05628 10981 ft 177 kts 130°
2026-04-21 00:05 15.48220 -62.04686 10982 ft 177 kts 130°
2026-04-21 00:05 15.47396 -62.03732 10981 ft 177 kts 130°
2026-04-21 00:06 15.46569 -62.02776 10981 ft 177 kts 130°
2026-04-21 00:06 15.45743 -62.01819 10982 ft 177 kts 131°
2026-04-21 00:06 15.44918 -62.00869 10980 ft 177 kts 130°
2026-04-21 00:06 15.44095 -61.99917 10981 ft 177 kts 130°
2026-04-21 00:07 15.43271 -61.98964 10981 ft 177 kts 130°
2026-04-21 00:07 15.42447 -61.98013 10977 ft 178 kts 130°
2026-04-21 00:07 15.41621 -61.97057 10972 ft 178 kts 130°
2026-04-21 00:07 15.40788 -61.96095 10970 ft 178 kts 130°
2026-04-21 00:08 15.39962 -61.95142 10967 ft 178 kts 130°
2026-04-21 00:08 15.39132 -61.94184 10969 ft 178 kts 130°
2026-04-21 00:08 15.38311 -61.93235 10970 ft 178 kts 130°
2026-04-21 00:08 15.37480 -61.92273 10970 ft 178 kts 130°
2026-04-21 00:09 15.36659 -61.91327 10971 ft 178 kts 130°
2026-04-21 00:09 15.35826 -61.90367 10969 ft 178 kts 130°
2026-04-21 00:09 15.34994 -61.89407 10969 ft 177 kts 130°
2026-04-21 00:09 15.34177 -61.88464 10969 ft 177 kts 130°
2026-04-21 00:10 15.33344 -61.87503 10971 ft 177 kts 130°
2026-04-21 00:10 15.32517 -61.86549 10972 ft 177 kts 130°
2026-04-21 00:10 15.31697 -61.85603 10970 ft 178 kts 130°
2026-04-21 00:10 15.30870 -61.84649 10971 ft 178 kts 130°
2026-04-21 00:11 15.30042 -61.83691 10971 ft 177 kts 130°
2026-04-21 00:11 15.29214 -61.82737 10971 ft 177 kts 130°
2026-04-21 00:11 15.28385 -61.81781 10970 ft 177 kts 130°
2026-04-21 00:11 15.27558 -61.80828 10974 ft 177 kts 130°
2026-04-21 00:12 15.26741 -61.79886 10972 ft 178 kts 130°
2026-04-21 00:12 15.25913 -61.78932 10972 ft 177 kts 130°
2026-04-21 00:12 15.25081 -61.77974 10970 ft 178 kts 130°
2026-04-21 00:12 15.24259 -61.77027 10971 ft 178 kts 130°
2026-04-21 00:13 15.23422 -61.76062 10972 ft 178 kts 130°
2026-04-21 00:13 15.22598 -61.75114 10973 ft 178 kts 130°
2026-04-21 00:13 15.21772 -61.74161 10973 ft 178 kts 130°
2026-04-21 00:13 15.20934 -61.73198 10973 ft 178 kts 130°
2026-04-21 00:14 15.20109 -61.72247 10970 ft 178 kts 130°
2026-04-21 00:14 15.19285 -61.71298 10968 ft 177 kts 130°
2026-04-21 00:14 15.18453 -61.70339 10968 ft 177 kts 130°
2026-04-21 00:14 15.17629 -61.69393 10969 ft 177 kts 130°
2026-04-21 00:15 15.16806 -61.68442 10971 ft 177 kts 130°
2026-04-21 00:15 15.15982 -61.67496 10971 ft 177 kts 130°
2026-04-21 00:15 15.15154 -61.66545 10971 ft 178 kts 130°
2026-04-21 00:15 15.14319 -61.65583 10971 ft 178 kts 130°
2026-04-21 00:16 15.13491 -61.64630 10970 ft 178 kts 130°
2026-04-21 00:16 15.12658 -61.63674 10971 ft 178 kts 130°
2026-04-21 00:16 15.11828 -61.62717 10970 ft 179 kts 130°
2026-04-21 00:16 15.10999 -61.61763 10969 ft 178 kts 130°
2026-04-21 00:17 15.10170 -61.60811 10971 ft 178 kts 130°
2026-04-21 00:17 15.09331 -61.59846 10970 ft 178 kts 130°
2026-04-21 00:17 15.08504 -61.58897 10970 ft 178 kts 130°
2026-04-21 00:17 15.07671 -61.57939 10969 ft 178 kts 130°
2026-04-21 00:18 15.06848 -61.56993 10969 ft 178 kts 130°
2026-04-21 00:18 15.06018 -61.56038 10969 ft 178 kts 130°
2026-04-21 00:18 15.05183 -61.55079 10971 ft 178 kts 130°
2026-04-21 00:18 15.04350 -61.54121 10971 ft 178 kts 130°
2026-04-21 00:19 15.03527 -61.53177 10970 ft 178 kts 130°
2026-04-21 00:19 15.02694 -61.52221 10970 ft 178 kts 130°
2026-04-21 00:19 15.01856 -61.51261 10971 ft 178 kts 130°
2026-04-21 00:19 15.01028 -61.50310 10969 ft 178 kts 130°
2026-04-21 00:20 15.00203 -61.49363 10970 ft 178 kts 130°
2026-04-21 00:20 14.99367 -61.48403 10970 ft 178 kts 130°
2026-04-21 00:20 14.98540 -61.47453 10970 ft 178 kts 130°
2026-04-21 00:20 14.97706 -61.46496 10968 ft 178 kts 130°
2026-04-21 00:21 14.96882 -61.45550 10971 ft 178 kts 130°
2026-04-21 00:21 14.96051 -61.44596 10971 ft 178 kts 130°
2026-04-21 00:21 14.95217 -61.43639 10971 ft 178 kts 130°
2026-04-21 00:21 14.94383 -61.42681 10971 ft 178 kts 130°
2026-04-21 00:22 14.93558 -61.41736 10970 ft 178 kts 130°
2026-04-21 00:22 14.92722 -61.40777 10970 ft 178 kts 130°
2026-04-21 00:22 14.91897 -61.39831 10972 ft 178 kts 130°
2026-04-21 00:22 14.91058 -61.38871 10972 ft 178 kts 130°
2026-04-21 00:23 14.90225 -61.37917 10970 ft 178 kts 130°
2026-04-21 00:23 14.89391 -61.36962 10969 ft 178 kts 130°
2026-04-21 00:23 14.88555 -61.36004 10968 ft 178 kts 130°
2026-04-21 00:23 14.87723 -61.35049 10970 ft 178 kts 130°
2026-04-21 00:24 14.86898 -61.34103 10970 ft 178 kts 130°
2026-04-21 00:24 14.86061 -61.33144 10968 ft 178 kts 130°
2026-04-21 00:24 14.85233 -61.32194 10968 ft 178 kts 130°
2026-04-21 00:24 14.84406 -61.31247 10968 ft 178 kts 130°
2026-04-21 00:25 14.83572 -61.30293 10970 ft 177 kts 130°
2026-04-21 00:25 14.82749 -61.29351 10973 ft 177 kts 131°
2026-04-21 00:25 14.81916 -61.28399 10976 ft 177 kts 130°
2026-04-21 00:25 14.81094 -61.27457 10980 ft 177 kts 130°
2026-04-21 00:26 14.80264 -61.26507 10983 ft 177 kts 130°
2026-04-21 00:26 14.79436 -61.25559 10981 ft 178 kts 130°
2026-04-21 00:26 14.78612 -61.24616 10982 ft 178 kts 130°
2026-04-21 00:26 14.77775 -61.23659 10981 ft 178 kts 130°
2026-04-21 00:27 14.76944 -61.22708 10981 ft 178 kts 130°
2026-04-21 00:27 14.76122 -61.21767 10982 ft 178 kts 130°
2026-04-21 00:27 14.75290 -61.20815 10985 ft 178 kts 130°
2026-04-21 00:27 14.74451 -61.19855 10986 ft 178 kts 130°
2026-04-21 00:28 14.73630 -61.18914 10985 ft 178 kts 130°
2026-04-21 00:28 14.72793 -61.17958 10985 ft 178 kts 130°
2026-04-21 00:28 14.71958 -61.17004 10984 ft 178 kts 130°
2026-04-21 00:28 14.71134 -61.16060 10983 ft 178 kts 131°
2026-04-21 00:29 14.70293 -61.15100 10983 ft 178 kts 130°
2026-04-21 00:29 14.69464 -61.14156 10985 ft 178 kts 131°
2026-04-21 00:29 14.68624 -61.13197 10983 ft 178 kts 130°
2026-04-21 00:29 14.67791 -61.12246 10984 ft 178 kts 130°
2026-04-21 00:30 14.66963 -61.11299 10984 ft 178 kts 130°
2026-04-21 00:30 14.66126 -61.10341 10983 ft 178 kts 130°
2026-04-21 00:30 14.65296 -61.09395 10984 ft 178 kts 130°
2026-04-21 00:30 14.64470 -61.08450 10986 ft 178 kts 130°
2026-04-21 00:31 14.63632 -61.07493 10985 ft 178 kts 130°
2026-04-21 00:31 14.62811 -61.06555 10985 ft 177 kts 130°
2026-04-21 00:31 14.61975 -61.05602 10986 ft 177 kts 131°
2026-04-21 00:31 14.61141 -61.04650 10986 ft 178 kts 130°
2026-04-21 00:32 14.60319 -61.03712 10985 ft 178 kts 131°
2026-04-21 00:32 14.59486 -61.02761 10985 ft 178 kts 130°
2026-04-21 00:32 14.58779 -61.01717 10995 ft 176 kts 112°
2026-04-21 00:32 14.58008 -61.00751 10994 ft 177 kts 140°
2026-04-21 00:33 14.57067 -60.99923 10985 ft 178 kts 138°
2026-04-21 00:33 14.56122 -60.99074 10986 ft 178 kts 136°
2026-04-21 00:33 14.55205 -60.98209 10984 ft 178 kts 135°
2026-04-21 00:33 14.54304 -60.97333 10984 ft 178 kts 135°
2026-04-21 00:34 14.53409 -60.96442 10983 ft 178 kts 134°
2026-04-21 00:34 14.52516 -60.95543 10983 ft 177 kts 134°
2026-04-21 00:34 14.51639 -60.94654 10982 ft 177 kts 134°
2026-04-21 00:34 14.50755 -60.93755 10981 ft 177 kts 134°
2026-04-21 00:35 14.49883 -60.92866 10982 ft 177 kts 134°
2026-04-21 00:35 14.49010 -60.91974 10980 ft 177 kts 134°
2026-04-21 00:35 14.48123 -60.91067 10976 ft 178 kts 134°
2026-04-21 00:35 14.47241 -60.90164 10973 ft 178 kts 134°
2026-04-21 00:36 14.46360 -60.89262 10973 ft 178 kts 134°
2026-04-21 00:36 14.45478 -60.88360 10974 ft 178 kts 134°
2026-04-21 00:36 14.44600 -60.87463 10976 ft 178 kts 134°
2026-04-21 00:36 14.43712 -60.86554 10976 ft 179 kts 134°
2026-04-21 00:37 14.42831 -60.85652 10981 ft 179 kts 134°
2026-04-21 00:37 14.41943 -60.84743 10981 ft 179 kts 134°
2026-04-21 00:37 14.41057 -60.83837 10980 ft 179 kts 134°
2026-04-21 00:37 14.40174 -60.82933 10980 ft 178 kts 134°
2026-04-21 00:38 14.39292 -60.82032 10973 ft 179 kts 134°
2026-04-21 00:38 14.38400 -60.81118 10969 ft 179 kts 134°
2026-04-21 00:38 14.37518 -60.80215 10968 ft 178 kts 134°
2026-04-21 00:38 14.36638 -60.79316 10967 ft 179 kts 134°
2026-04-21 00:39 14.35746 -60.78405 10968 ft 179 kts 134°
2026-04-21 00:39 14.34868 -60.77509 10968 ft 179 kts 134°
2026-04-21 00:39 14.33977 -60.76599 10968 ft 179 kts 134°
2026-04-21 00:39 14.33094 -60.75697 10966 ft 179 kts 134°
2026-04-21 00:40 14.32212 -60.74796 10968 ft 179 kts 134°
2026-04-21 00:40 14.31321 -60.73885 10969 ft 179 kts 134°
2026-04-21 00:40 14.30435 -60.72979 10968 ft 179 kts 134°
2026-04-21 00:40 14.29551 -60.72074 10970 ft 178 kts 134°
2026-04-21 00:41 14.28676 -60.71182 10969 ft 178 kts 134°
2026-04-21 00:41 14.27786 -60.70272 10970 ft 178 kts 134°
2026-04-21 00:41 14.26909 -60.69377 10970 ft 178 kts 134°
2026-04-21 00:41 14.26034 -60.68485 10970 ft 177 kts 134°
2026-04-21 00:42 14.25148 -60.67578 10968 ft 178 kts 134°
2026-04-21 00:42 14.24271 -60.66686 10969 ft 178 kts 134°
2026-04-21 00:42 14.23392 -60.65787 10970 ft 178 kts 134°
2026-04-21 00:42 14.22510 -60.64888 10968 ft 178 kts 134°
2026-04-21 00:43 14.21628 -60.63987 10969 ft 178 kts 134°
2026-04-21 00:43 14.20742 -60.63082 10970 ft 178 kts 134°
2026-04-21 00:43 14.19856 -60.62179 10969 ft 178 kts 134°
2026-04-21 00:43 14.18974 -60.61280 10972 ft 179 kts 134°
2026-04-21 00:44 14.18092 -60.60380 10971 ft 179 kts 134°
2026-04-21 00:44 14.17202 -60.59473 10970 ft 178 kts 134°
2026-04-21 00:44 14.16324 -60.58579 10970 ft 178 kts 134°
2026-04-21 00:45 14.14545 -60.56766 10969 ft 178 kts 134°
2026-04-21 00:45 14.13674 -60.55877 10969 ft 178 kts 134°
2026-04-21 00:45 14.12790 -60.54974 10971 ft 178 kts 134°
2026-04-21 00:45 14.11905 -60.54074 10971 ft 178 kts 134°
2026-04-21 00:46 14.11020 -60.53172 10971 ft 178 kts 134°
2026-04-21 00:46 14.10133 -60.52267 10970 ft 179 kts 134°
2026-04-21 00:46 14.09244 -60.51361 10971 ft 179 kts 134°
2026-04-21 00:46 14.08361 -60.50463 10971 ft 179 kts 134°
2026-04-21 00:47 14.07477 -60.49563 10970 ft 178 kts 134°
2026-04-21 00:47 14.06595 -60.48666 10970 ft 178 kts 134°
2026-04-21 00:47 14.05700 -60.47754 10970 ft 178 kts 134°
2026-04-21 00:47 14.04817 -60.46856 10970 ft 178 kts 134°
2026-04-21 00:48 14.03933 -60.45955 10969 ft 178 kts 134°
2026-04-21 00:48 14.03058 -60.45064 10970 ft 178 kts 134°
2026-04-21 00:48 14.02173 -60.44162 10970 ft 178 kts 134°
2026-04-21 00:48 14.01284 -60.43257 10970 ft 178 kts 134°
2026-04-21 00:49 14.00404 -60.42362 10969 ft 178 kts 134°
2026-04-21 00:49 13.99517 -60.41461 10971 ft 178 kts 134°
2026-04-21 00:49 13.98629 -60.40558 10970 ft 179 kts 134°
2026-04-21 00:49 13.97744 -60.39658 10970 ft 179 kts 134°
2026-04-21 00:50 13.96860 -60.38759 10971 ft 179 kts 134°
2026-04-21 00:50 13.95978 -60.37861 10970 ft 179 kts 134°
2026-04-21 00:50 13.95090 -60.36957 10970 ft 179 kts 134°
2026-04-21 00:50 13.94198 -60.36050 10971 ft 178 kts 134°
2026-04-21 00:51 13.93319 -60.35157 10969 ft 179 kts 134°
2026-04-21 00:51 13.92430 -60.34253 10969 ft 178 kts 134°
2026-04-21 00:51 13.91549 -60.33358 10967 ft 178 kts 134°
2026-04-21 00:51 13.90663 -60.32458 10969 ft 177 kts 134°
2026-04-21 00:52 13.89780 -60.31562 10970 ft 177 kts 134°
2026-04-21 00:52 13.88905 -60.30673 10969 ft 177 kts 134°
2026-04-21 00:52 13.88025 -60.29778 10968 ft 177 kts 134°
2026-04-21 00:52 13.87148 -60.28886 10969 ft 178 kts 134°
2026-04-21 00:53 13.86261 -60.27985 10968 ft 178 kts 134°
2026-04-21 00:53 13.85374 -60.27084 10969 ft 178 kts 134°
2026-04-21 00:53 13.84500 -60.26197 10969 ft 178 kts 134°
2026-04-21 00:53 13.83610 -60.25293 10968 ft 178 kts 134°
2026-04-21 00:54 13.82730 -60.24400 10968 ft 178 kts 134°
2026-04-21 00:54 13.81847 -60.23505 10967 ft 178 kts 134°
2026-04-21 00:54 13.80963 -60.22607 10969 ft 178 kts 134°
2026-04-21 00:54 13.80084 -60.21715 10969 ft 178 kts 134°
2026-04-21 00:55 13.79204 -60.20822 10969 ft 178 kts 134°
2026-04-21 00:55 13.78318 -60.19923 10970 ft 177 kts 134°
2026-04-21 00:55 13.77425 -60.19016 10866 ft 183 kts 134°
2026-04-21 00:55 13.76506 -60.18084 10750 ft 186 kts 134°
2026-04-21 00:56 13.75584 -60.17150 10635 ft 189 kts 134°
2026-04-21 00:56 13.74638 -60.16190 10517 ft 190 kts 134°
2026-04-21 00:56 13.73688 -60.15227 10398 ft 191 kts 134°
2026-04-21 00:56 13.72738 -60.14263 10281 ft 192 kts 134°
2026-04-21 00:57 13.71786 -60.13298 10162 ft 192 kts 134°
2026-04-21 00:57 13.70838 -60.12339 10042 ft 191 kts 134°
2026-04-21 00:57 13.69879 -60.11368 9921 ft 191 kts 134°
2026-04-21 00:57 13.68941 -60.10416 9803 ft 191 kts 134°
2026-04-21 00:58 13.67991 -60.09455 9683 ft 190 kts 134°
2026-04-21 00:58 13.67042 -60.08493 9564 ft 190 kts 134°
2026-04-21 00:58 13.66108 -60.07549 9446 ft 190 kts 133°
2026-04-21 00:58 13.65162 -60.06589 9327 ft 189 kts 133°
2026-04-21 00:59 13.64233 -60.05650 9207 ft 188 kts 133°
2026-04-21 00:59 13.63289 -60.04693 9086 ft 188 kts 133°
2026-04-21 00:59 13.62364 -60.03752 8966 ft 188 kts 134°
2026-04-21 00:59 13.61433 -60.02811 8846 ft 188 kts 134°
2026-04-21 01:00 13.60496 -60.01862 8725 ft 187 kts 134°
2026-04-21 01:00 13.59562 -60.00919 8605 ft 187 kts 134°
2026-04-21 01:00 13.58648 -59.99993 8485 ft 186 kts 134°
2026-04-21 01:00 13.57718 -59.99051 8365 ft 185 kts 133°
2026-04-21 01:01 13.56795 -59.98119 8245 ft 185 kts 133°
2026-04-21 01:01 13.55888 -59.97200 8127 ft 184 kts 133°
2026-04-21 01:01 13.54967 -59.96269 8007 ft 184 kts 133°
2026-04-21 01:01 13.54062 -59.95357 7889 ft 183 kts 133°
2026-04-21 01:02 13.53147 -59.94430 7769 ft 183 kts 133°
2026-04-21 01:02 13.52240 -59.93512 7650 ft 182 kts 133°
2026-04-21 01:02 13.51348 -59.92602 7533 ft 182 kts 133°
2026-04-21 01:02 13.50436 -59.91686 7412 ft 180 kts 133°
2026-04-21 01:03 13.49546 -59.90787 7292 ft 180 kts 133°
2026-04-21 01:03 13.48655 -59.89885 7172 ft 179 kts 133°
2026-04-21 01:03 13.47764 -59.88987 7052 ft 179 kts 133°
2026-04-21 01:03 13.46873 -59.88084 6931 ft 179 kts 132°
2026-04-21 01:04 13.45993 -59.87197 6813 ft 178 kts 133°
2026-04-21 01:04 13.45108 -59.86300 6693 ft 178 kts 132°
2026-04-21 01:04 13.44218 -59.85403 6572 ft 177 kts 132°
2026-04-21 01:04 13.43345 -59.84512 6452 ft 177 kts 132°
2026-04-21 01:05 13.42462 -59.83626 6332 ft 176 kts 132°
2026-04-21 01:05 13.41582 -59.82737 6210 ft 175 kts 133°
2026-04-21 01:05 13.40719 -59.81862 6090 ft 174 kts 132°
2026-04-21 01:05 13.39850 -59.80986 5969 ft 174 kts 132°
2026-04-21 01:06 13.38991 -59.80115 5849 ft 174 kts 132°
2026-04-21 01:06 13.38123 -59.79240 5728 ft 173 kts 132°
2026-04-21 01:06 13.37256 -59.78365 5606 ft 173 kts 132°
2026-04-21 01:06 13.36397 -59.77500 5486 ft 173 kts 132°
2026-04-21 01:07 13.35540 -59.76633 5365 ft 173 kts 132°
2026-04-21 01:07 13.34683 -59.75770 5245 ft 172 kts 132°
2026-04-21 01:07 13.33826 -59.74904 5124 ft 172 kts 131°
2026-04-21 01:07 13.32967 -59.74039 5003 ft 172 kts 131°
2026-04-21 01:08 13.32113 -59.73178 4882 ft 172 kts 131°
2026-04-21 01:08 13.31257 -59.72310 4761 ft 172 kts 132°
2026-04-21 01:08 13.30398 -59.71446 4639 ft 172 kts 131°
2026-04-21 01:08 13.29547 -59.70588 4519 ft 172 kts 132°
2026-04-21 01:09 13.28701 -59.69734 4397 ft 170 kts 132°
2026-04-21 01:09 13.27854 -59.68882 4274 ft 168 kts 131°
2026-04-21 01:09 13.27030 -59.68053 4153 ft 167 kts 131°
2026-04-21 01:09 13.26196 -59.67209 4030 ft 166 kts 131°
2026-04-21 01:10 13.25376 -59.66383 3910 ft 166 kts 131°
2026-04-21 01:10 13.24554 -59.65555 3788 ft 165 kts 131°
2026-04-21 01:10 13.23722 -59.64715 3665 ft 166 kts 131°
2026-04-21 01:10 13.22789 -59.64016 3540 ft 169 kts 152°
2026-04-21 01:11 13.21708 -59.63538 3421 ft 168 kts 151°
2026-04-21 01:11 13.20668 -59.63028 3302 ft 166 kts 147°
2026-04-21 01:11 13.19628 -59.62487 3179 ft 166 kts 148°
2026-04-21 01:11 13.18601 -59.61949 3053 ft 165 kts 148°
2026-04-21 01:12 13.17568 -59.61411 2927 ft 165 kts 148°
2026-04-21 01:12 13.16544 -59.60884 2801 ft 165 kts 148°
2026-04-21 01:12 13.15513 -59.60350 2675 ft 165 kts 148°
2026-04-21 01:12 13.14490 -59.59820 2551 ft 165 kts 148°
2026-04-21 01:13 13.13454 -59.59278 2426 ft 165 kts 148°
2026-04-21 01:13 13.12440 -59.58748 2308 ft 165 kts 147°
2026-04-21 01:13 13.11402 -59.58207 2187 ft 165 kts 147°
2026-04-21 01:13 13.10371 -59.57677 2067 ft 165 kts 148°
2026-04-21 01:14 13.09343 -59.57145 1946 ft 165 kts 148°
2026-04-21 01:14 13.08374 -59.56576 1814 ft 152 kts 132°
2026-04-21 01:14 13.07658 -59.55814 1698 ft 144 kts 128°
2026-04-21 01:14 13.07020 -59.55093 1528 ft 132 kts 126°
2026-04-21 01:15 13.06540 -59.54319 1282 ft 121 kts 107°
2026-04-21 01:15 13.06424 -59.53555 1094 ft 103 kts 85°
2026-04-21 01:15 13.06555 -59.52879 860 ft 88 kts 76°
2026-04-21 01:15 13.06699 -59.52299 678 ft 81 kts 73°
2026-04-21 01:16 13.06841 -59.51742 512 ft 81 kts 75°
2026-04-21 01:16 13.06979 -59.51188 370 ft 79 kts 75°
2026-04-21 01:16 13.07117 -59.50641 229 ft 79 kts 76°
2026-04-21 01:16 13.07239 -59.50128 174 ft 68 kts 74°
2026-04-21 01:17 13.07337 -59.49743 170 ft 45 kts 78°
2026-04-21 01:17 13.07400 -59.49473 170 ft 33 kts 76°
2026-04-21 01:17 13.07451 -59.49275 170 ft 24 kts 77°
2026-04-21 01:17 13.07483 -59.49133 171 ft 16 kts 74°
2026-04-21 01:18 13.07508 -59.49037 172 ft 12 kts 70°
2026-04-21 01:18 13.07567 -59.48984 172 ft 10 kts
2026-04-21 01:18 13.07629 -59.48996 174 ft 8 kts 346°
2026-04-21 01:18 13.07673 -59.49031 175 ft 8 kts 274°
2026-04-21 01:19 13.07663 -59.49093 176 ft 10 kts 257°
2026-04-21 01:19 13.07693 -59.49140 178 ft 8 kts 355°
2026-04-21 01:19 13.07714 -59.49144 178 ft 0 kts 347°